Location: Dillon
(41.1766°N, 107.0923°W)
Time: 08:33:32
(UTC+00:00)

QB50P2 - Pass Details

Date: 29 June 2022
Orbit: 590 x 605 km, 97.9° (Epoch: 09 August)

Event Time Altitude Azimuth Distance (km) Brightness Sun altitude
Rises 09:24:33 0° 359° (N) 2,856 ? -18.6°
Reaches altitude 10° 09:27:01 10° 346° (NNW) 1,951 ? -18.4°
Maximum altitude 09:30:27 25° 292° (WNW) 1,243 ? -18.0°
Enters shadow 09:31:35 22° 267° (W) 1,338 ? -17.9°
